W4MLN-3 Weather Reports


time (UTC)temp
F
wind
direction
speed
knots
gust
knots
rain 1hr
in
rain 24hr
in
rain mn
in
humidity
%
barometer
mb
20260504212503 68 159 3.5 7.8 0.00 0.00 0.00 41 1013.8
20260504212003 68 163 3.5 7.8 0.00 0.00 0.00 43 1014.0
20260504211503 67 165 3.5 7.8 0.00 0.00 0.00 42 1013.9
20260504211003 67 172 3.5 13.0 0.00 0.00 0.00 43 1013.9
20260504210503 67 168 3.5 13.0 0.00 0.00 0.00 43 1013.9
20260504210004 67 165 3.5 9.6 0.00 0.00 0.00 43 1013.9
20260504205503 68 174 3.5 9.6 0.00 0.00 0.00 42 1013.9
20260504205003 68 218 4.3 10.4 0.00 0.00 0.00 42 1013.9
20260504204503 68 243 3.5 10.4 0.00 0.00 0.00 42 1013.9
20260504204024 68 148 3.5 10.4 0.00 0.00 0.00 42 1013.9
20260504203503 69 156 4.3 10.4 0.00 0.00 0.00 42 1014.0
20260504203003 69 155 4.3 9.6 0.00 0.00 0.00 42 1014.1
20260504202503 69 139 4.3 13.0 0.00 0.00 0.00 41 1014.1
20260504202003 70 130 4.3 13.0 0.00 0.00 0.00 39 1014.0
20260504201504 71 128 3.5 7.0 0.00 0.00 0.00 40 1014.1
20260504201003 72 160 3.5 9.6 0.00 0.00 0.00 39 1014.1
20260504200503 72 285 3.5 9.6 0.00 0.00 0.00 43 1014.2
20260504200024 72 290 4.3 7.8 0.00 0.00 0.00 41 1014.2
20260504195503 72 279 3.5 7.8 0.00 0.00 0.00 41 1014.3
20260504195003 71 266 3.5 7.8 0.00 0.00 0.00 43 1014.4
20260504194503 72 286 3.5 7.8 0.00 0.00 0.00 43 1014.5
20260504194003 71 299 3.5 9.6 0.00 0.00 0.00 47 1014.5
20260504193503 71 305 3.5 9.6 0.00 0.00 0.00 45 1014.5
20260504193003 70 264 2.6 8.7 0.00 0.00 0.00 47 1014.5
20260504192503 70 284 2.6 8.7 0.00 0.00 0.00 45 1014.7
20260504192003 69 315 3.5 7.8 0.00 0.00 0.00 47 1014.8
20260504191503 69 299 4.3 11.3 0.00 0.00 0.00 45 1014.9
20260504191003 69 285 4.3 11.3 0.00 0.00 0.00 47 1015.0
20260504190504 69 294 5.2 13.0 0.00 0.00 0.00 47 1015.1
20260504190024 68 299 4.3 13.0 0.00 0.00 0.00 47 1015.2
20260504185503 68 294 3.5 9.6 0.00 0.00 0.00 49 1015.2
20260504185003 68 290 4.3 10.4 0.00 0.00 0.00 48 1015.3
20260504184503 68 286 5.2 12.2 0.00 0.00 0.00 46 1015.3
20260504184024 68 283 6.1 12.2 0.00 0.00 0.00 47 1015.4
20260504183524 68 269 4.3 12.2 0.00 0.00 0.00 49 1015.4
20260504183003 67 265 3.5 10.4 0.00 0.00 0.00 48 1015.5
20260504182503 66 271 3.5 10.4 0.00 0.00 0.00 50 1015.4
20260504182004 66 281 4.3 10.4 0.00 0.00 0.00 49 1015.6
20260504181503 66 293 6.1 13.0 0.00 0.00 0.00 51 1015.6
20260504181045 66 284 6.1 13.0 0.00 0.00 0.00 49 1015.6
20260504180503 66 261 4.3 12.2 0.00 0.00 0.00 50 1015.7
20260504180003 66 255 3.5 12.2 0.00 0.00 0.00 48 1015.7
20260504175503 66 278 3.5 9.6 0.00 0.00 0.00 49 1015.7
20260504175003 65 271 3.5 9.6 0.00 0.00 0.00 49 1015.6
20260504174503 65 282 4.3 10.4 0.00 0.00 0.00 47 1015.8
20260504174003 65 283 5.2 12.2 0.00 0.00 0.00 51 1015.8
20260504173503 65 268 6.1 12.2 0.00 0.00 0.00 47 1015.8
20260504173003 65 280 6.1 12.2 0.00 0.00 0.00 46 1015.9
20260504172524 66 285 6.1 12.2 0.00 0.00 0.00 46 1015.8
20260504172003 66 284 5.2 12.2 0.00 0.00 0.00 49 1015.8
20260504171503 66 285 4.3 11.3 0.00 0.00 0.00 46 1015.8
20260504171003 66 290 3.5 7.8 0.00 0.00 0.00 45 1015.7
20260504170503 66 313 3.5 9.6 0.00 0.00 0.00 43 1015.8
20260504151003 56 277 4.3 11.3 0.00 0.00 0.00 59 1017.3
20260504150503 55 299 2.6 8.7 0.00 0.00 0.00 58 1017.8
20260504141003 57 281 5.2 13.0 0.00 0.00 0.00 51 1017.3
20260504140503 57 274 6.1 13.9 0.00 0.00 0.00 51 1017.2
20260504130503 55 288 2.6 7.8 0.00 0.00 0.00 52 1016.4
20260504110503 45 198 1.7 7.0 0.00 0.00 0.00 70 1015.9
20260504100503 47 326 0.9 7.0 0.00 0.00 0.00 63 1015.7
20260504082003 44 303 2.6 9.6 0.00 0.00 0.00 70 1015.7
20260504081503 43 320 1.7 9.6 0.00 0.00 0.00 71 1015.7
20260504081003 42 13 0.9 5.2 0.00 0.00 0.00 70 1015.7
20260504080503 42 65 0.9 5.2 0.00 0.00 0.00 70 1015.7
20260504050503 42 167 1.7 4.3 0.00 0.00 0.00 61 1016.3
20260504050003 42 159 0.9 3.5 0.00 0.00 0.00 62 1016.4
20260504045503 42 153 0.9 1.7 0.00 0.00 0.00 62 1016.4
20260504045003 41 174 1.7 5.2 0.00 0.00 0.00 63 1016.4
20260504044504 41 232 1.7 5.2 0.00 0.00 0.00 63 1016.3
20260504044003 41 281 0.9 2.6 0.00 0.00 0.00 65 1016.3
20260504043503 41 281 0.9 1.7 0.00 0.00 0.00 66 1016.3
20260504043003 41 281 0.0 1.7 0.00 0.00 0.00 66 1016.3
20260504042524 41 281 0.0 0.9 0.00 0.00 0.00 65 1016.3
20260504042003 42 281 0.0 1.7 0.00 0.00 0.00 65 1016.4
20260504041524 42 282 0.9 3.5 0.00 0.00 0.00 65 1016.3
20260504041003 41 282 0.0 3.5 0.00 0.00 0.00 65 1016.3
20260504040503 41 119 0.0 1.7 0.00 0.00 0.00 64 1016.2
20260504040003 41 124 0.9 1.7 0.00 0.00 0.00 63 1016.1
20260504035545 41 123 0.9 1.7 0.00 0.00 0.00 63 1016.1
20260504035003 42 121 0.0 1.7 0.00 0.00 0.00 62 1016.1
20260504034503 42 121 0.9 2.6 0.00 0.00 0.00 59 1016.2
20260504034003 42 142 0.9 2.6 0.00 0.00 0.00 58 1016.1
20260504033503 42 171 0.0 2.6 0.00 0.00 0.00 57 1016.2
20260504033003 42 201 0.0 0.9 0.00 0.00 0.00 57 1016.1
20260504032545 43 201 0.0 0.9 0.00 0.00 0.00 57 1016.1
20260504032003 43 201 0.0 0.9 0.00 0.00 0.00 58 1016.1
20260504031503 43 201 0.0 0.9 0.00 0.00 0.00 57 1016.0
20260504031003 43 196 0.9 1.7 0.00 0.00 0.00 56 1016.0
20260504030524 43 160 0.9 1.7 0.00 0.00 0.00 56 1016.0
20260504030003 43 134 0.9 1.7 0.00 0.00 0.00 56 1016.1
20260504025524 43 151 0.9 4.3 0.00 0.00 0.00 56 1016.2
20260504025003 43 163 1.7 5.2 0.00 0.00 0.00 53 1016.1
20260504024503 43 158 1.7 5.2 0.00 0.00 0.00 55 1016.1
20260504024003 43 144 1.7 2.6 0.00 0.00 0.00 56 1016.3
20260504023503 43 145 0.9 2.6 0.00 0.00 0.00 54 1016.3
20260504023003 43 148 0.0 0.9 0.00 0.00 0.00 53 1016.4
20260504022524 43 148 0.0 1.7 0.00 0.00 0.00 54 1016.4
20260504022003 43 144 0.9 2.6 0.00 0.00 0.00 55 1016.4
20260504021503 44 165 0.9 2.6 0.00 0.00 0.00 53 1016.3
20260504021003 44 183 1.7 2.6 0.00 0.00 0.00 52 1016.3
20260504020503 44 191 0.9 2.6 0.00 0.00 0.00 52 1016.2
20260504020003 44 194 0.9 2.6 0.00 0.00 0.00 53 1016.2
20260504015524 44 194 0.0 0.9 0.00 0.00 0.00 51 1016.0
20260504015003 44 185 0.9 2.6 0.00 0.00 0.00 51 1015.9
20260504014503 44 164 0.9 3.5 0.00 0.00 0.00 51 1015.8
20260504014003 44 141 0.9 3.5 0.00 0.00 0.00 53 1015.7
20260504013503 45 130 0.9 2.6 0.00 0.00 0.00 50 1015.8
20260504013003 45 130 0.0 1.7 0.00 0.00 0.00 52 1015.9
20260504012503 45 130 0.9 1.7 0.00 0.00 0.00 53 1015.9
20260504012003 46 130 0.9 1.7 0.00 0.00 0.00 51 1015.9
20260504011524 46 130 0.0 1.7 0.00 0.00 0.00 51 1015.8
20260504011003 46 130 0.0 1.7 0.00 0.00 0.00 52 1015.6
20260504010503 47 130 0.0 1.7 0.00 0.00 0.00 51 1015.6
20260504010003 47 143 0.9 3.5 0.00 0.00 0.00 51 1015.6
20260504005503 48 151 1.7 3.5 0.00 0.00 0.00 48 1015.5
20260504005004 48 159 0.9 3.5 0.00 0.00 0.00 48 1015.5
20260504004503 49 156 0.9 3.5 0.00 0.00 0.00 46 1015.4
20260504004004 49 190 0.0 1.7 0.00 0.00 0.00 45 1015.5
20260504003503 50 190 0.9 1.7 0.00 0.00 0.00 44 1015.5
20260504003003 50 190 0.9 1.7 0.00 0.00 0.00 45 1015.5
20260504002545 51 208 0.9 4.3 0.00 0.00 0.00 44 1015.5
20260504002003 51 244 1.7 4.3 0.00 0.00 0.00 39 1015.4
20260504001503 51 212 1.7 3.5 0.00 0.00 0.00 39 1015.3
20260504001003 52 221 1.7 6.1 0.00 0.00 0.00 38 1015.3
20260504000524 52 249 2.6 7.0 0.00 0.00 0.00 35 1015.3
20260504000003 52 268 1.7 7.0 0.00 0.00 0.00 36 1015.3
20260503235503 53 281 2.6 9.6 0.00 0.00 0.00 35 1015.2
20260503235003 53 279 3.5 9.6 0.00 0.00 0.00 33 1015.3
20260503234503 54 281 3.5 9.6 0.00 0.00 0.00 33 1015.2
20260503234003 54 285 3.5 9.6 0.00 0.00 0.00 33 1015.2
20260503233524 54 290 3.5 10.4 0.00 0.00 0.00 32 1015.1
20260503233003 55 282 3.5 10.4 0.00 0.00 0.00 32 1015.1
20260503232524 55 279 3.5 7.8 0.00 0.00 0.00 32 1015.1